Weather in Ardahan

Turkey     41°06′33″N   42°42′07″E
temp.,
°C
wind,
m/s
gust,
m/s
humid.,
%
clouds,
%
prec.,
mm/h
press.,
hPa
HPBL,
m
9 may, sun
sun900:00+6se1174100 0.0 101611
03:00+5s1181100 0.0 101510
06:00+7sse11808 0.0 101429
09:00+14ssw485048 0.0 10091337
12:00+17sw6104398 0.0 10062571
15:00+4nnw5992100 3.2 1012367
18:00+1nw3597100 7.6 1018354
21:000nnw369463 7.9 1020480
10 may, mon
mon1000:00−2nnw2592100 0.2 1022574
03:00−4nnw348964 0.3 1024416
06:00−5nw239591 0.1 1026207
09:00−2wnw346744 0.1 10241009
12:00+1wnw345639 0.0 10211486
15:00+3nw455481 0.0 10181553
18:00+1nnw446629 0.0 1019852
21:00−4n11925 0.0 102414
11 may, tue
tue1100:00−5n11955 0.0 102415
03:00−6ne01945 0.0 102412
06:00−4nne118212 0.0 1023144
09:00+4ese02511 0.0 1017761
12:00+9s25400 0.0 10131420
15:00+12w453829 0.0 10111609
18:00+9n23614 0.0 1012109
21:00+2nne22850 0.0 101611
12 may, wed
wed1200:000ene11890 0.0 101810
03:000se11890 0.0 101811
06:00+2sse12820 0.0 101847
09:00+11s35430 0.0 1015917
12:00+16sw67300 0.0 10132183
15:00+16sw45302 0.0 10132438
18:00+14ne114691 0.0 101314
21:00+7ese225689 0.0 101713
13 may, thu
thu1300:00+5se22645 0.0 101811
03:00+4se12650 0.0 101812
06:00+6sse11650 0.0 101917
09:00+15ssw35400 0.0 10161229
12:00+18wsw46301 0.0 10142250
15:00+19w353032 0.0 10132962
18:00+16n22475 0.0 101428
21:00+9se226996 0.0 101926